Location: Amsterdam
(30.7274°N, 84.4357°W)
Time: 03:47:50
(UTC+00:00)

Tiros 1 - Pass Details

Date: 25 February 2026
Orbit: 618 x 649 km, 48.4° (Epoch: 7 March)

Event Time Altitude Azimuth Distance (km) Brightness Sun altitude
Rises 10:33:06 0° 234° (SW) 2,934 - -21.2°
Reaches altitude 10° 10:35:26 10° 236° (SW) 2,023 - -20.7°
Exits shadow 10:38:52 47° 254° (WSW) 844 7.3 -20.0°
Maximum altitude 10:40:05 70° 320° (NW) 677 7.0 -19.7°
Drops below altitude 10° 10:44:42 10° 44° (NE) 2,010 10.3 -18.7°
Sets 10:47:02 0° 47° (NE) 2,914 11.3 -18.2°
